Year,Month,Day,Hour,Minute,Value (Times are PST for temperature in C)
2014,06,22,00,00,12.60
2014,06,22,00,01,12.60
2014,06,22,00,02,12.60
2014,06,22,00,03,12.60
2014,06,22,00,04,12.60
2014,06,22,00,05,12.60
2014,06,22,00,06,12.50
2014,06,22,00,07,12.50
2014,06,22,00,08,12.50
2014,06,22,00,09,12.60
2014,06,22,00,10,12.60
2014,06,22,00,11,12.50
2014,06,22,00,12,12.50
2014,06,22,00,13,12.50
2014,06,22,00,14,12.50
2014,06,22,00,15,12.50
2014,06,22,00,16,12.50
2014,06,22,00,17,12.50
2014,06,22,00,18,12.50
2014,06,22,00,19,12.40
2014,06,22,00,20,12.40
2014,06,22,00,21,12.40
2014,06,22,00,22,12.40
2014,06,22,00,23,12.40
2014,06,22,00,24,12.30
2014,06,22,00,25,12.30
2014,06,22,00,26,12.30
2014,06,22,00,27,12.30
2014,06,22,00,28,12.30
2014,06,22,00,29,12.30
2014,06,22,00,30,12.30
2014,06,22,00,31,12.30
2014,06,22,00,32,12.30
2014,06,22,00,33,12.30
2014,06,22,00,34,12.30
2014,06,22,00,35,12.30
2014,06,22,00,36,12.30
2014,06,22,00,37,12.30
2014,06,22,00,38,12.30
2014,06,22,00,39,12.30
2014,06,22,00,40,12.20
2014,06,22,00,41,12.20
2014,06,22,00,42,12.20
2014,06,22,00,43,12.20
2014,06,22,00,44,12.20
2014,06,22,00,45,12.20
2014,06,22,00,46,12.20
2014,06,22,00,47,12.20
2014,06,22,00,48,12.20
2014,06,22,00,49,12.10
2014,06,22,00,50,12.10
2014,06,22,00,51,12.10
2014,06,22,00,52,12.10
2014,06,22,00,53,12.10
2014,06,22,00,54,12.10
2014,06,22,00,55,12.10
2014,06,22,00,56,12.10
2014,06,22,00,57,12.10
2014,06,22,00,58,12.10
2014,06,22,00,59,12.10
2014,06,22,01,00,12.10
2014,06,22,01,01,12.10
2014,06,22,01,02,12.10
2014,06,22,01,03,12.10
2014,06,22,01,04,12.10
2014,06,22,01,05,12.10
2014,06,22,01,06,12.00
2014,06,22,01,07,12.00
2014,06,22,01,08,12.00
2014,06,22,01,09,12.00
2014,06,22,01,10,12.00
2014,06,22,01,11,12.00
2014,06,22,01,12,11.90
2014,06,22,01,13,11.90
2014,06,22,01,14,11.90
2014,06,22,01,15,11.90
2014,06,22,01,16,11.90
2014,06,22,01,17,11.90
2014,06,22,01,18,11.90
2014,06,22,01,19,11.80
2014,06,22,01,20,11.80
2014,06,22,01,21,11.80
2014,06,22,01,22,11.80
2014,06,22,01,23,11.80
2014,06,22,01,24,11.80
2014,06,22,01,25,11.80
2014,06,22,01,26,11.70
2014,06,22,01,27,11.70
2014,06,22,01,28,11.70
2014,06,22,01,29,11.60
2014,06,22,01,30,11.60
2014,06,22,01,31,11.60
2014,06,22,01,32,11.60
2014,06,22,01,33,11.60
2014,06,22,01,34,11.60
2014,06,22,01,35,11.60
2014,06,22,01,36,11.50
2014,06,22,01,37,11.40
2014,06,22,01,38,11.40
2014,06,22,01,39,11.40
2014,06,22,01,40,11.40
2014,06,22,01,41,11.40
2014,06,22,01,42,11.40
2014,06,22,01,43,11.40
2014,06,22,01,44,11.40
2014,06,22,01,45,11.30
2014,06,22,01,46,11.30
2014,06,22,01,47,11.30
2014,06,22,01,48,11.30
2014,06,22,01,49,11.30
2014,06,22,01,50,11.30
2014,06,22,01,51,11.20
2014,06,22,01,52,11.20
2014,06,22,01,53,11.20
2014,06,22,01,54,11.20
2014,06,22,01,55,11.20
2014,06,22,01,56,11.20
2014,06,22,01,57,11.20
2014,06,22,01,58,11.20
2014,06,22,01,59,11.20
2014,06,22,02,00,11.20
2014,06,22,02,01,11.20
2014,06,22,02,02,11.20
2014,06,22,02,03,11.20
2014,06,22,02,04,11.20
2014,06,22,02,05,11.20
2014,06,22,02,06,11.20
2014,06,22,02,07,11.10
2014,06,22,02,08,11.10
2014,06,22,02,09,11.10
2014,06,22,02,10,11.10
2014,06,22,02,11,11.10
2014,06,22,02,12,11.10
2014,06,22,02,13,11.10
2014,06,22,02,14,11.10
2014,06,22,02,15,11.10
2014,06,22,02,16,11.10
2014,06,22,02,17,11.10
2014,06,22,02,18,11.10
2014,06,22,02,19,11.10
2014,06,22,02,20,11.10
2014,06,22,02,21,11.10
2014,06,22,02,22,11.10
2014,06,22,02,23,11.10
2014,06,22,02,24,11.10
2014,06,22,02,25,11.00
2014,06,22,02,26,10.90
2014,06,22,02,27,10.90
2014,06,22,02,28,10.90
2014,06,22,02,29,10.90
2014,06,22,02,30,10.90
2014,06,22,02,31,10.90
2014,06,22,02,32,10.90
2014,06,22,02,33,10.90
2014,06,22,02,34,10.90
2014,06,22,02,35,10.90
2014,06,22,02,36,10.90
2014,06,22,02,37,10.90
2014,06,22,02,38,10.90
2014,06,22,02,39,10.90
2014,06,22,02,40,10.90
2014,06,22,02,41,10.90
2014,06,22,02,42,10.90
2014,06,22,02,43,10.90
2014,06,22,02,44,10.90
2014,06,22,02,45,10.90
2014,06,22,02,46,10.90
2014,06,22,02,47,10.90
2014,06,22,02,48,10.90
2014,06,22,02,49,10.90
2014,06,22,02,50,10.90
2014,06,22,02,51,10.90
2014,06,22,02,52,10.90
2014,06,22,02,53,10.90
2014,06,22,02,54,10.90
2014,06,22,02,55,10.90
2014,06,22,02,56,10.90
2014,06,22,02,57,10.90
2014,06,22,02,58,10.90
2014,06,22,02,59,10.90
2014,06,22,03,00,10.90
2014,06,22,03,01,10.90
2014,06,22,03,02,10.90
2014,06,22,03,03,10.90
2014,06,22,03,04,10.90
2014,06,22,03,05,10.80
2014,06,22,03,06,10.80
2014,06,22,03,07,10.80
2014,06,22,03,08,10.80
2014,06,22,03,09,10.70
2014,06,22,03,10,10.70
2014,06,22,03,11,10.70
2014,06,22,03,12,10.70
2014,06,22,03,13,10.70
2014,06,22,03,14,10.70
2014,06,22,03,15,10.70
2014,06,22,03,16,10.70
2014,06,22,03,17,10.70
2014,06,22,03,18,10.70
2014,06,22,03,19,10.70
2014,06,22,03,20,10.70
2014,06,22,03,21,10.70
2014,06,22,03,22,10.70
2014,06,22,03,23,10.70
2014,06,22,03,24,10.70
2014,06,22,03,25,10.70
2014,06,22,03,26,10.70
2014,06,22,03,27,10.70
2014,06,22,03,28,10.70
2014,06,22,03,29,10.70
2014,06,22,03,30,10.70
2014,06,22,03,31,10.60
2014,06,22,03,32,10.60
2014,06,22,03,33,10.60
2014,06,22,03,34,10.60
2014,06,22,03,35,10.60
2014,06,22,03,36,10.60
2014,06,22,03,37,10.60
2014,06,22,03,38,10.60
2014,06,22,03,39,10.60
2014,06,22,03,40,10.60
2014,06,22,03,41,10.60
2014,06,22,03,42,10.60
2014,06,22,03,43,10.60
2014,06,22,03,44,10.60
2014,06,22,03,45,10.50
2014,06,22,03,46,10.40
2014,06,22,03,47,10.40
2014,06,22,03,48,10.40
2014,06,22,03,49,10.40
2014,06,22,03,50,10.40
2014,06,22,03,51,10.40
2014,06,22,03,52,10.40
2014,06,22,03,53,10.40
2014,06,22,03,54,10.40
2014,06,22,03,55,10.40
2014,06,22,03,56,10.40
2014,06,22,03,57,10.40
2014,06,22,03,58,10.40
2014,06,22,03,59,10.40
2014,06,22,04,00,10.40
2014,06,22,04,01,10.40
2014,06,22,04,02,10.40
2014,06,22,04,03,10.40
2014,06,22,04,04,10.40
2014,06,22,04,05,10.40
2014,06,22,04,06,10.40
2014,06,22,04,07,10.40
2014,06,22,04,08,10.40
2014,06,22,04,09,10.40
2014,06,22,04,10,10.40
2014,06,22,04,11,10.30
2014,06,22,04,12,10.30
2014,06,22,04,13,10.30
2014,06,22,04,14,10.30
2014,06,22,04,15,10.30
2014,06,22,04,16,10.30
2014,06,22,04,17,10.30
2014,06,22,04,18,10.30
2014,06,22,04,19,10.30
2014,06,22,04,20,10.20
2014,06,22,04,21,10.20
2014,06,22,04,22,10.20
2014,06,22,04,23,10.20
2014,06,22,04,24,10.20
2014,06,22,04,25,10.20
2014,06,22,04,26,10.20
2014,06,22,04,27,10.20
2014,06,22,04,28,10.10
2014,06,22,04,29,10.10
2014,06,22,04,30,10.10
2014,06,22,04,31,10.10
2014,06,22,04,32,10.10
2014,06,22,04,33,10.10
2014,06,22,04,34,10.10
2014,06,22,04,35,10.10
2014,06,22,04,36,10.10
2014,06,22,04,37,10.10
2014,06,22,04,38,10.10
2014,06,22,04,39,10.10
2014,06,22,04,40,10.10
2014,06,22,04,41,10.00
2014,06,22,04,42,9.90
2014,06,22,04,43,9.90
2014,06,22,04,44,9.90
2014,06,22,04,45,9.90
2014,06,22,04,46,9.90
2014,06,22,04,47,9.90
2014,06,22,04,48,9.90
2014,06,22,04,49,9.90
2014,06,22,04,50,9.90
2014,06,22,04,51,9.90
2014,06,22,04,52,9.90
2014,06,22,04,53,9.90
2014,06,22,04,54,9.90
2014,06,22,04,55,9.90
2014,06,22,04,56,9.90
2014,06,22,04,57,9.90
2014,06,22,04,58,9.90
2014,06,22,04,59,9.90
2014,06,22,05,00,9.80
2014,06,22,05,01,9.80
2014,06,22,05,02,9.80
2014,06,22,05,03,9.80
2014,06,22,05,04,9.80
2014,06,22,05,05,9.80
2014,06,22,05,06,9.80
2014,06,22,05,07,9.80
2014,06,22,05,08,9.80
2014,06,22,05,09,9.80
2014,06,22,05,10,9.80
2014,06,22,05,11,9.80
2014,06,22,05,12,9.70
2014,06,22,05,13,9.70
2014,06,22,05,14,9.70
2014,06,22,05,15,9.70
2014,06,22,05,16,9.70
2014,06,22,05,17,9.70
2014,06,22,05,18,9.70
2014,06,22,05,19,9.70
2014,06,22,05,20,9.70
2014,06,22,05,21,9.70
2014,06,22,05,22,9.70
2014,06,22,05,23,9.70
2014,06,22,05,24,9.70
2014,06,22,05,25,9.70
2014,06,22,05,26,9.60
2014,06,22,05,27,9.60
2014,06,22,05,28,9.60
2014,06,22,05,29,9.50
2014,06,22,05,30,9.50
2014,06,22,05,31,9.50
2014,06,22,05,32,9.50
2014,06,22,05,33,9.50
2014,06,22,05,34,9.50
2014,06,22,05,35,9.50
2014,06,22,05,36,9.50
2014,06,22,05,37,9.50
2014,06,22,05,38,9.50
2014,06,22,05,39,9.50
2014,06,22,05,40,9.50
2014,06,22,05,41,9.50
2014,06,22,05,42,9.50
2014,06,22,05,43,9.50
2014,06,22,05,44,9.50
2014,06,22,05,45,9.50
2014,06,22,05,46,9.60
2014,06,22,05,47,9.60
2014,06,22,05,48,9.50
2014,06,22,05,49,9.50
2014,06,22,05,50,9.50
2014,06,22,05,51,9.50
2014,06,22,05,52,9.50
2014,06,22,05,53,9.60
2014,06,22,05,54,9.60
2014,06,22,05,55,9.60
2014,06,22,05,56,9.60
2014,06,22,05,57,9.60
2014,06,22,05,58,9.70
2014,06,22,05,59,9.70
2014,06,22,06,00,9.70
2014,06,22,06,01,9.70
2014,06,22,06,02,9.70
2014,06,22,06,03,9.70
2014,06,22,06,04,9.70
2014,06,22,06,05,9.80
2014,06,22,06,06,9.80
2014,06,22,06,07,9.80
2014,06,22,06,08,9.90
2014,06,22,06,09,9.90
2014,06,22,06,10,9.90
2014,06,22,06,11,9.90
2014,06,22,06,12,9.90
2014,06,22,06,13,10.00
2014,06,22,06,14,10.10
2014,06,22,06,15,10.10
2014,06,22,06,16,10.10
2014,06,22,06,17,10.10
2014,06,22,06,18,10.20
2014,06,22,06,19,10.20
2014,06,22,06,20,10.30
2014,06,22,06,21,10.30
2014,06,22,06,22,10.40
2014,06,22,06,23,10.40
2014,06,22,06,24,10.50
2014,06,22,06,25,10.60
2014,06,22,06,26,10.60
2014,06,22,06,27,10.70
2014,06,22,06,28,10.70
2014,06,22,06,29,10.80
2014,06,22,06,30,10.90
2014,06,22,06,31,10.90
2014,06,22,06,32,10.90
2014,06,22,06,33,10.90
2014,06,22,06,34,11.00
2014,06,22,06,35,11.10
2014,06,22,06,36,11.10
2014,06,22,06,37,11.00
2014,06,22,06,38,10.90
2014,06,22,06,39,10.90
2014,06,22,06,40,10.90
2014,06,22,06,41,10.90
2014,06,22,06,42,11.00
2014,06,22,06,43,11.10
2014,06,22,06,44,11.10
2014,06,22,06,45,11.20
2014,06,22,06,46,11.30
2014,06,22,06,47,11.30
2014,06,22,06,48,11.40
2014,06,22,06,49,11.40
2014,06,22,06,50,11.50
2014,06,22,06,51,11.60
2014,06,22,06,52,11.60
2014,06,22,06,53,11.60
2014,06,22,06,54,11.70
2014,06,22,06,55,11.80
2014,06,22,06,56,11.80
2014,06,22,06,57,11.80
2014,06,22,06,58,11.80
2014,06,22,06,59,11.90
2014,06,22,07,00,11.90
2014,06,22,07,01,11.90
2014,06,22,07,02,12.00
2014,06,22,07,03,12.00
2014,06,22,07,04,12.10
2014,06,22,07,05,12.10
2014,06,22,07,06,12.20
2014,06,22,07,07,12.20
2014,06,22,07,08,12.20
2014,06,22,07,09,12.30
2014,06,22,07,10,12.30
2014,06,22,07,11,12.30
2014,06,22,07,12,12.30
2014,06,22,07,13,12.30
2014,06,22,07,14,12.30
2014,06,22,07,15,12.20
2014,06,22,07,16,12.10
2014,06,22,07,17,12.00
2014,06,22,07,18,12.00
2014,06,22,07,19,12.00
2014,06,22,07,20,11.90
2014,06,22,07,21,11.90
2014,06,22,07,22,11.90
2014,06,22,07,23,11.90
2014,06,22,07,24,11.90
2014,06,22,07,25,11.90
2014,06,22,07,26,11.90
2014,06,22,07,27,11.90
2014,06,22,07,28,12.00
2014,06,22,07,29,12.00
2014,06,22,07,30,12.00
2014,06,22,07,31,12.10
2014,06,22,07,32,12.10
2014,06,22,07,33,12.20
2014,06,22,07,34,12.20
2014,06,22,07,35,12.30
2014,06,22,07,36,12.30
2014,06,22,07,37,12.30
2014,06,22,07,38,12.30
2014,06,22,07,39,12.30
2014,06,22,07,40,12.30
2014,06,22,07,41,12.30
2014,06,22,07,42,12.30
2014,06,22,07,43,12.30
2014,06,22,07,44,12.30
2014,06,22,07,45,12.40
2014,06,22,07,46,12.40
2014,06,22,07,47,12.40
2014,06,22,07,48,12.40
2014,06,22,07,49,12.40
2014,06,22,07,50,12.40
2014,06,22,07,51,12.40
2014,06,22,07,52,12.30
2014,06,22,07,53,12.30
2014,06,22,07,54,12.30
2014,06,22,07,55,12.30
2014,06,22,07,56,12.30
2014,06,22,07,57,12.40
2014,06,22,07,58,12.50
2014,06,22,07,59,12.50
2014,06,22,08,00,12.60
2014,06,22,08,01,12.70
2014,06,22,08,02,12.80
2014,06,22,08,03,12.80
2014,06,22,08,04,12.90
2014,06,22,08,05,13.00
2014,06,22,08,06,13.00
2014,06,22,08,07,13.00
2014,06,22,08,08,13.00
2014,06,22,08,09,13.10
2014,06,22,08,10,13.10
2014,06,22,08,11,13.10
2014,06,22,08,12,13.10
2014,06,22,08,13,13.10
2014,06,22,08,14,13.10
2014,06,22,08,15,13.10
2014,06,22,08,16,13.10
2014,06,22,08,17,13.00
2014,06,22,08,18,13.00
2014,06,22,08,19,13.00
2014,06,22,08,20,13.00
2014,06,22,08,21,13.00
2014,06,22,08,22,13.00
2014,06,22,08,23,13.00
2014,06,22,08,24,12.90
2014,06,22,08,25,12.90
2014,06,22,08,26,13.00
2014,06,22,08,27,13.00
2014,06,22,08,28,13.00
2014,06,22,08,29,13.10
2014,06,22,08,30,13.10
2014,06,22,08,31,13.10
2014,06,22,08,32,13.20
2014,06,22,08,33,13.20
2014,06,22,08,34,13.30
2014,06,22,08,35,13.30
2014,06,22,08,36,13.30
2014,06,22,08,37,13.30
2014,06,22,08,38,13.30
2014,06,22,08,39,13.30
2014,06,22,08,40,13.40
2014,06,22,08,41,13.40
2014,06,22,08,42,13.40
2014,06,22,08,43,13.30
2014,06,22,08,44,13.30
2014,06,22,08,45,13.30
2014,06,22,08,46,13.30
2014,06,22,08,47,13.30
2014,06,22,08,48,13.20
2014,06,22,08,49,13.20
2014,06,22,08,50,13.20
2014,06,22,08,51,13.20
2014,06,22,08,52,13.20
2014,06,22,08,53,13.20
2014,06,22,08,54,13.20
2014,06,22,08,55,13.20
2014,06,22,08,56,13.20
2014,06,22,08,57,13.30
2014,06,22,08,58,13.30
2014,06,22,08,59,13.30
2014,06,22,09,00,13.30
2014,06,22,09,01,13.40
2014,06,22,09,02,13.50
2014,06,22,09,03,13.50
2014,06,22,09,04,13.60
2014,06,22,09,05,13.60
2014,06,22,09,06,13.60
2014,06,22,09,07,13.60
2014,06,22,09,08,13.70
2014,06,22,09,09,13.70
2014,06,22,09,10,13.70
2014,06,22,09,11,13.70
2014,06,22,09,12,13.70
2014,06,22,09,13,13.70
2014,06,22,09,14,13.80
2014,06,22,09,15,13.80
2014,06,22,09,16,13.80
2014,06,22,09,17,13.90
2014,06,22,09,18,13.90
2014,06,22,09,19,13.90
2014,06,22,09,20,13.90
2014,06,22,09,21,13.90
2014,06,22,09,22,14.00
2014,06,22,09,23,14.00
2014,06,22,09,24,14.10
2014,06,22,09,25,14.10
2014,06,22,09,26,14.10
2014,06,22,09,27,14.20
2014,06,22,09,28,14.20
2014,06,22,09,29,14.20
2014,06,22,09,30,14.20
2014,06,22,09,31,14.20
2014,06,22,09,32,14.20
2014,06,22,09,33,14.20
2014,06,22,09,34,14.20
2014,06,22,09,35,14.10
2014,06,22,09,36,14.20
2014,06,22,09,37,14.10
2014,06,22,09,38,14.10
2014,06,22,09,39,14.10
2014,06,22,09,40,14.10
2014,06,22,09,41,14.20
2014,06,22,09,42,14.20
2014,06,22,09,43,14.20
2014,06,22,09,44,14.20
2014,06,22,09,45,14.20
2014,06,22,09,46,14.20
2014,06,22,09,47,14.20
2014,06,22,09,48,14.20
2014,06,22,09,49,14.20
2014,06,22,09,50,14.20
2014,06,22,09,51,14.20
2014,06,22,09,52,14.30
2014,06,22,09,53,14.30
2014,06,22,09,54,14.30
2014,06,22,09,55,14.40
2014,06,22,09,56,14.40
2014,06,22,09,57,14.40
2014,06,22,09,58,14.40
2014,06,22,09,59,14.30
2014,06,22,10,00,14.30
2014,06,22,10,01,14.30
2014,06,22,10,02,14.30
2014,06,22,10,03,14.30
2014,06,22,10,04,14.40
2014,06,22,10,05,14.40
2014,06,22,10,06,14.40
2014,06,22,10,07,14.40
2014,06,22,10,08,14.40
2014,06,22,10,09,14.40
2014,06,22,10,10,14.30
2014,06,22,10,11,14.20
2014,06,22,10,12,14.20
2014,06,22,10,13,14.20
2014,06,22,10,14,14.20
2014,06,22,10,15,14.20
2014,06,22,10,16,14.10
2014,06,22,10,17,14.10
2014,06,22,10,18,14.10
2014,06,22,10,19,14.10
2014,06,22,10,20,14.20
2014,06,22,10,21,14.20
2014,06,22,10,22,14.20
2014,06,22,10,23,14.20
2014,06,22,10,24,14.20
2014,06,22,10,25,14.20
2014,06,22,10,26,14.20
2014,06,22,10,27,14.20
2014,06,22,10,28,14.20
2014,06,22,10,29,14.20
2014,06,22,10,30,14.30
2014,06,22,10,31,14.30
2014,06,22,10,32,14.30
2014,06,22,10,33,14.30
2014,06,22,10,34,14.30
2014,06,22,10,35,14.20
2014,06,22,10,36,14.20
2014,06,22,10,37,14.20
2014,06,22,10,38,14.20
2014,06,22,10,39,14.20
2014,06,22,10,40,14.20
2014,06,22,10,41,14.20
2014,06,22,10,42,14.20
2014,06,22,10,43,14.20
2014,06,22,10,44,14.20
2014,06,22,10,45,14.30
2014,06,22,10,46,14.40
2014,06,22,10,47,14.40
2014,06,22,10,48,14.50
2014,06,22,10,49,14.60
2014,06,22,10,50,14.70
2014,06,22,10,51,14.70
2014,06,22,10,52,14.80
2014,06,22,10,53,14.80
2014,06,22,10,54,14.80
2014,06,22,10,55,14.80
2014,06,22,10,56,14.80
2014,06,22,10,57,14.80
2014,06,22,10,58,14.80
2014,06,22,10,59,14.80
2014,06,22,11,00,14.90
2014,06,22,11,01,14.90
2014,06,22,11,02,14.90
2014,06,22,11,03,14.90
2014,06,22,11,04,14.90
2014,06,22,11,05,14.90
2014,06,22,11,06,14.90
2014,06,22,11,07,14.90
2014,06,22,11,08,14.90
2014,06,22,11,09,14.90
2014,06,22,11,10,15.00
2014,06,22,11,11,15.00
2014,06,22,11,12,15.10
2014,06,22,11,13,15.20
2014,06,22,11,14,15.20
2014,06,22,11,15,15.30
2014,06,22,11,16,15.30
2014,06,22,11,17,15.30
2014,06,22,11,18,15.40
2014,06,22,11,19,15.40
2014,06,22,11,20,15.40
2014,06,22,11,21,15.40
2014,06,22,11,22,15.30
2014,06,22,11,23,15.30
2014,06,22,11,24,15.30
2014,06,22,11,25,15.20
2014,06,22,11,26,15.20
2014,06,22,11,27,15.20
2014,06,22,11,28,15.10
2014,06,22,11,29,15.10
2014,06,22,11,30,15.20
2014,06,22,11,31,15.20
2014,06,22,11,32,15.20
2014,06,22,11,33,15.10
2014,06,22,11,34,15.00
2014,06,22,11,35,15.00
2014,06,22,11,36,14.90
2014,06,22,11,37,14.80
2014,06,22,11,38,14.90
2014,06,22,11,39,14.90
2014,06,22,11,40,15.00
2014,06,22,11,41,15.10
2014,06,22,11,42,15.30
2014,06,22,11,43,15.40
2014,06,22,11,44,15.50
2014,06,22,11,45,15.60
2014,06,22,11,46,15.70
2014,06,22,11,47,15.80
2014,06,22,11,48,16.00
2014,06,22,11,49,16.10
2014,06,22,11,50,16.20
2014,06,22,11,51,16.30
2014,06,22,11,52,16.40
2014,06,22,11,53,16.40
2014,06,22,11,54,16.60
2014,06,22,11,55,16.60
2014,06,22,11,56,16.70
2014,06,22,11,57,16.70
2014,06,22,11,58,16.70
2014,06,22,11,59,16.80
2014,06,22,12,00,16.90
2014,06,22,12,01,16.90
2014,06,22,12,02,17.00
2014,06,22,12,03,17.00
2014,06,22,12,04,17.00
2014,06,22,12,05,17.10
2014,06,22,12,06,17.10
2014,06,22,12,07,17.20
2014,06,22,12,08,17.20
2014,06,22,12,09,17.20
2014,06,22,12,10,17.20
2014,06,22,12,11,17.10
2014,06,22,12,12,17.00
2014,06,22,12,13,16.90
2014,06,22,12,14,16.90
2014,06,22,12,15,16.80
2014,06,22,12,16,16.70
2014,06,22,12,17,16.80
2014,06,22,12,18,16.70
2014,06,22,12,19,16.70
2014,06,22,12,20,16.70
2014,06,22,12,21,16.70
2014,06,22,12,22,16.50
2014,06,22,12,23,16.40
2014,06,22,12,24,16.40
2014,06,22,12,25,16.40
2014,06,22,12,26,16.40
2014,06,22,12,27,16.40
2014,06,22,12,28,16.40
2014,06,22,12,29,16.40
2014,06,22,12,30,16.60
2014,06,22,12,31,16.60
2014,06,22,12,32,16.70
2014,06,22,12,33,16.70
2014,06,22,12,34,16.70
2014,06,22,12,35,16.70
2014,06,22,12,36,16.70
2014,06,22,12,37,16.70
2014,06,22,12,38,16.70
2014,06,22,12,39,16.80
2014,06,22,12,40,16.90
2014,06,22,12,41,17.00
2014,06,22,12,42,17.10
2014,06,22,12,43,17.20
2014,06,22,12,44,17.20
2014,06,22,12,45,17.20
2014,06,22,12,46,17.20
2014,06,22,12,47,17.10
2014,06,22,12,48,17.10
2014,06,22,12,49,17.10
2014,06,22,12,50,17.00
2014,06,22,12,51,16.90
2014,06,22,12,52,16.90
2014,06,22,12,53,16.90
2014,06,22,12,54,16.80
2014,06,22,12,55,16.80
2014,06,22,12,56,16.80
2014,06,22,12,57,16.80
2014,06,22,12,58,16.90
2014,06,22,12,59,17.00
2014,06,22,13,00,17.10
2014,06,22,13,01,17.20
2014,06,22,13,02,17.30
2014,06,22,13,03,17.40
2014,06,22,13,04,17.40
2014,06,22,13,05,17.40
2014,06,22,13,06,17.40
2014,06,22,13,07,17.40
2014,06,22,13,08,17.40
2014,06,22,13,09,17.40
2014,06,22,13,10,17.40
2014,06,22,13,11,17.40
2014,06,22,13,12,17.40
2014,06,22,13,13,17.50
2014,06,22,13,14,17.50
2014,06,22,13,15,17.60
2014,06,22,13,16,17.70
2014,06,22,13,17,17.70
2014,06,22,13,18,17.80
2014,06,22,13,19,17.80
2014,06,22,13,20,17.90
2014,06,22,13,21,17.90
2014,06,22,13,22,17.90
2014,06,22,13,23,18.00
2014,06,22,13,24,18.10
2014,06,22,13,25,18.20
2014,06,22,13,26,18.20
2014,06,22,13,27,18.30
2014,06,22,13,28,18.30
2014,06,22,13,29,18.20
2014,06,22,13,30,18.20
2014,06,22,13,31,18.20
2014,06,22,13,32,18.20
2014,06,22,13,33,18.30
2014,06,22,13,34,18.30
2014,06,22,13,35,18.30
2014,06,22,13,36,18.40
2014,06,22,13,37,18.50
2014,06,22,13,38,18.60
2014,06,22,13,39,18.60
2014,06,22,13,40,18.70
2014,06,22,13,41,18.80
2014,06,22,13,42,18.80
2014,06,22,13,43,18.90
2014,06,22,13,44,18.90
2014,06,22,13,45,18.90
2014,06,22,13,46,18.90
2014,06,22,13,47,18.90
2014,06,22,13,48,19.00
2014,06,22,13,49,19.10
2014,06,22,13,50,19.10
2014,06,22,13,51,19.10
2014,06,22,13,52,19.10
2014,06,22,13,53,19.20
2014,06,22,13,54,19.20
2014,06,22,13,55,19.30
2014,06,22,13,56,19.30
2014,06,22,13,57,19.30
2014,06,22,13,58,19.30
2014,06,22,13,59,19.40
2014,06,22,14,00,19.30
2014,06,22,14,01,19.30
2014,06,22,14,02,19.30
2014,06,22,14,03,19.30
2014,06,22,14,04,19.20
2014,06,22,14,05,19.10
2014,06,22,14,06,19.10
2014,06,22,14,07,19.10
2014,06,22,14,08,19.10
2014,06,22,14,09,19.10
2014,06,22,14,10,19.20
2014,06,22,14,11,19.30
2014,06,22,14,12,19.40
2014,06,22,14,13,19.50
2014,06,22,14,14,19.60
2014,06,22,14,15,19.70
2014,06,22,14,16,19.80
2014,06,22,14,17,19.90
2014,06,22,14,18,20.00
2014,06,22,14,19,20.10
2014,06,22,14,20,20.20
2014,06,22,14,21,20.20
2014,06,22,14,22,20.30
2014,06,22,14,23,20.30
2014,06,22,14,24,20.40
2014,06,22,14,25,20.30
2014,06,22,14,26,20.30
2014,06,22,14,27,20.30
2014,06,22,14,28,20.20
2014,06,22,14,29,20.30
2014,06,22,14,30,20.30
2014,06,22,14,31,20.30
2014,06,22,14,32,20.40
2014,06,22,14,33,20.40
2014,06,22,14,34,20.30
2014,06,22,14,35,20.20
2014,06,22,14,36,20.20
2014,06,22,14,37,20.00
2014,06,22,14,38,19.90
2014,06,22,14,39,19.90
2014,06,22,14,40,19.80
2014,06,22,14,41,19.80
2014,06,22,14,42,19.70
2014,06,22,14,43,19.70
2014,06,22,14,44,19.70
2014,06,22,14,45,19.70
2014,06,22,14,46,19.70
2014,06,22,14,47,19.70
2014,06,22,14,48,19.80
2014,06,22,14,49,19.80
2014,06,22,14,50,19.80
2014,06,22,14,51,19.90
2014,06,22,14,52,19.90
2014,06,22,14,53,19.90
2014,06,22,14,54,20.00
2014,06,22,14,55,20.10
2014,06,22,14,56,20.10
2014,06,22,14,57,20.10
2014,06,22,14,58,20.10
2014,06,22,14,59,20.10
2014,06,22,15,00,20.10
2014,06,22,15,01,20.20
2014,06,22,15,02,20.20
2014,06,22,15,03,20.30
2014,06,22,15,04,20.30
2014,06,22,15,05,20.40
2014,06,22,15,06,20.50
2014,06,22,15,07,20.50
2014,06,22,15,08,20.50
2014,06,22,15,09,20.60
2014,06,22,15,10,20.60
2014,06,22,15,11,20.60
2014,06,22,15,12,20.70
2014,06,22,15,13,20.70
2014,06,22,15,14,20.80
2014,06,22,15,15,20.80
2014,06,22,15,16,20.90
2014,06,22,15,17,21.00
2014,06,22,15,18,21.20
2014,06,22,15,19,21.30
2014,06,22,15,20,21.30
2014,06,22,15,21,21.30
2014,06,22,15,22,21.30
2014,06,22,15,23,21.20
2014,06,22,15,24,21.40
2014,06,22,15,25,21.60
2014,06,22,15,26,21.80
2014,06,22,15,27,22.00
2014,06,22,15,28,22.20
2014,06,22,15,29,22.40
2014,06,22,15,30,22.50
2014,06,22,15,31,22.70
2014,06,22,15,32,22.90
2014,06,22,15,33,23.20
2014,06,22,15,34,23.40
2014,06,22,15,35,23.60
2014,06,22,15,36,23.70
2014,06,22,15,37,23.70
2014,06,22,15,38,23.70
2014,06,22,15,39,23.60
2014,06,22,15,40,23.40
2014,06,22,15,41,23.60
2014,06,22,15,42,23.50
2014,06,22,15,43,23.40
2014,06,22,15,44,23.40
2014,06,22,15,45,23.30
2014,06,22,15,46,23.20
2014,06,22,15,47,23.10
2014,06,22,15,48,23.10
2014,06,22,15,49,23.20
2014,06,22,15,50,23.20
2014,06,22,15,51,23.20
2014,06,22,15,52,23.10
2014,06,22,15,53,23.10
2014,06,22,15,54,23.00
2014,06,22,15,55,22.90
2014,06,22,15,56,22.90
2014,06,22,15,57,22.80
2014,06,22,15,58,22.80
2014,06,22,15,59,22.80
2014,06,22,16,00,22.80
2014,06,22,16,01,22.70
2014,06,22,16,02,22.70
2014,06,22,16,03,22.70
2014,06,22,16,04,22.60
2014,06,22,16,05,22.40
2014,06,22,16,06,22.30
2014,06,22,16,07,22.30
2014,06,22,16,08,22.50
2014,06,22,16,09,22.70
2014,06,22,16,10,22.80
2014,06,22,16,11,22.90
2014,06,22,16,12,23.10
2014,06,22,16,13,23.20
2014,06,22,16,14,23.10
2014,06,22,16,15,23.10
2014,06,22,16,16,23.20
2014,06,22,16,17,23.20
2014,06,22,16,18,23.10
2014,06,22,16,19,23.10
2014,06,22,16,20,23.20
2014,06,22,16,21,23.10
2014,06,22,16,22,22.90
2014,06,22,16,23,22.90
2014,06,22,16,24,22.90
2014,06,22,16,25,22.90
2014,06,22,16,26,22.90
2014,06,22,16,27,22.70
2014,06,22,16,28,22.70
2014,06,22,16,29,22.70
2014,06,22,16,30,22.80
2014,06,22,16,31,22.80
2014,06,22,16,32,22.80
2014,06,22,16,33,22.90
2014,06,22,16,34,22.90
2014,06,22,16,35,22.90
2014,06,22,16,36,22.80
2014,06,22,16,37,22.80
2014,06,22,16,38,22.70
2014,06,22,16,39,22.70
2014,06,22,16,40,22.70
2014,06,22,16,41,22.70
2014,06,22,16,42,22.60
2014,06,22,16,43,22.60
2014,06,22,16,44,22.70
2014,06,22,16,45,22.80
2014,06,22,16,46,22.90
2014,06,22,16,47,23.00
2014,06,22,16,48,23.30
2014,06,22,16,49,23.30
2014,06,22,16,50,23.30
2014,06,22,16,51,23.10
2014,06,22,16,52,22.90
2014,06,22,16,53,22.70
2014,06,22,16,54,22.50
2014,06,22,16,55,22.40
2014,06,22,16,56,22.60
2014,06,22,16,57,22.60
2014,06,22,16,58,22.60
2014,06,22,16,59,22.70
2014,06,22,17,00,22.80
2014,06,22,17,01,22.90
2014,06,22,17,02,23.00
2014,06,22,17,03,23.10
2014,06,22,17,04,23.30
2014,06,22,17,05,23.30
2014,06,22,17,06,23.30
2014,06,22,17,07,23.30
2014,06,22,17,08,23.30
2014,06,22,17,09,23.30
2014,06,22,17,10,23.30
2014,06,22,17,11,23.30
2014,06,22,17,12,23.20
2014,06,22,17,13,23.20
2014,06,22,17,14,23.20
2014,06,22,17,15,23.00
2014,06,22,17,16,22.80
2014,06,22,17,17,22.80
2014,06,22,17,18,22.80
2014,06,22,17,19,22.70
2014,06,22,17,20,22.70
2014,06,22,17,21,22.80
2014,06,22,17,22,22.90
2014,06,22,17,23,22.90